Lincoln City Weather Center

Moon Phase Calendar



Online Cameras

 


      

Current Conditions in Lincoln City
4/18/2021 5:37:18 AM

48°F
Feels Like 47
Clear
Humidity
96%
Pressure
30.18"
Wind
3.3 mph (SE)
Dew Point
47°F
UV Index
0/10 (Low)
Visibility
6 mi

Hourly Forecast

Date & Time Sun, Apr 18
5:00 AM
Sun, Apr 18
6:00 AM
Sun, Apr 18
7:00 AM
Sun, Apr 18
8:00 AM
Sun, Apr 18
9:00 AM
Sun, Apr 18
10:00 AM
Sun, Apr 18
11:00 AM
Sun, Apr 18
12:00 PM
Sun, Apr 18
1:00 PM
Sun, Apr 18
2:00 PM
Sun, Apr 18
3:00 PM
Sun, Apr 18
4:00 PM
Sun, Apr 18
5:00 PM
Sun, Apr 18
6:00 PM
Sun, Apr 18
7:00 PM
Sun, Apr 18
8:00 PM
Sun, Apr 18
9:00 PM
Sun, Apr 18
10:00 PM
Sun, Apr 18
11:00 PM
Mon, Apr 19
12:00 AM
Mon, Apr 19
1:00 AM
Mon, Apr 19
2:00 AM
Mon, Apr 19
3:00 AM
Mon, Apr 19
4:00 AM
Mon, Apr 19
5:00 AM
Mon, Apr 19
6:00 AM
Mon, Apr 19
7:00 AM
Mon, Apr 19
8:00 AM
Mon, Apr 19
9:00 AM
Mon, Apr 19
10:00 AM
Mon, Apr 19
11:00 AM
Mon, Apr 19
12:00 PM
Mon, Apr 19
1:00 PM
Mon, Apr 19
2:00 PM
Mon, Apr 19
3:00 PM
Mon, Apr 19
4:00 PM
Mon, Apr 19
5:00 PM
Mon, Apr 19
6:00 PM
Mon, Apr 19
7:00 PM
Mon, Apr 19
8:00 PM
Mon, Apr 19
9:00 PM
Mon, Apr 19
10:00 PM
Mon, Apr 19
11:00 PM
Tue, Apr 20
12:00 AM
Tue, Apr 20
1:00 AM
Tue, Apr 20
2:00 AM
Tue, Apr 20
3:00 AM
Tue, Apr 20
4:00 AM
Condition
Clear

Clear

Clear

Clear

Clear

Clear

Clear

Clear

Clear

Clouds

Clouds

Clouds

Clouds

Clouds

Clear

Clear

Clouds

Clouds

Clouds

Clouds

Clouds

Clouds

Clouds

Clouds

Clouds

Clouds

Clouds

Clouds

Clouds

Clouds

Clouds

Clouds

Clouds

Clouds

Clouds

Clouds

Clouds

Clouds

Clouds

Clouds

Clouds

Clouds

Clouds

Clouds

Clouds

Clouds

Clouds

Clouds
Temperature 48°F48°F48°F51°F55°F59°F62°F62°F62°F62°F62°F62°F61°F59°F56°F51°F50°F50°F50°F49°F49°F48°F48°F48°F48°F48°F49°F52°F56°F57°F60°F60°F60°F58°F57°F56°F55°F54°F52°F51°F50°F50°F50°F49°F48°F48°F48°F48°F
Feels Like 48°F47°F47°F50°F53°F57°F61°F61°F60°F61°F61°F60°F59°F57°F55°F50°F50°F50°F50°F49°F49°F48°F48°F48°F48°F48°F49°F50°F54°F55°F57°F58°F58°F57°F56°F54°F53°F53°F51°F50°F49°F49°F48°F46°F45°F45°F45°F45°F
Cloudiness 0%0%0%1%2%3%6%9%9%11%14%16%16%11%9%8%20%36%47%99%99%72%58%50%46%30%65%77%81%85%87%100%100%100%100%100%100%100%100%100%100%100%100%100%96%97%98%98%
Visibility 6 mi6 mi6 mi6 mi6 mi6 mi6 mi6 mi6 mi6 mi6 mi6 mi6 mi6 mi6 mi6 mi6 mi6 mi6 mi6 mi6 mi6 mi6 mi6 mi6 mi6 mi6 mi6 mi6 mi6 mi6 mi6 mi6 mi6 mi6 mi6 mi6 mi6 mi6 mi6 mi6 mi6 mi6 mi6 mi6 mi6 mi6 mi6 mi
Precipitation 0%0%0%0%0%0%0%0%0%0%0%0%0%0%0%0%0%0%0%0%0%0%0%0%0%0%0%0%0%0%0%0%0%0%0%4%8%9%9%14%18%21%20%0%0%0%0%0%
Humidity 90%96%89%80%69%58%50%51%53%51%51%51%53%58%69%80%80%75%72%72%70%69%69%69%68%68%66%61%54%51%48%50%52%59%62%67%69%72%81%87%87%85%86%90%94%95%95%96%
Dew Point 45°F47°F45°F45°F45°F44°F42°F43°F43°F43°F42°F42°F43°F43°F45°F45°F43°F42°F40°F40°F39°F38°F38°F38°F37°F37°F37°F39°F39°F39°F39°F40°F41°F43°F44°F44°F45°F45°F46°F47°F46°F45°F45°F46°F46°F46°F46°F46°F
Pressure 30.18"30.18"30.18"30.18"30.18"30.18"30.21"30.21"30.21"30.21"30.21"30.18"30.18"30.18"30.18"30.18"30.21"30.21"30.21"30.24"30.24"30.24"30.24"30.24"30.24"30.24"30.24"30.24"30.24"30.24"30.24"30.24"30.24"30.21"30.21"30.21"30.21"30.21"30.21"30.21"30.21"30.21"30.18"30.18"30.18"30.18"30.18"30.18"
Wind Speed 1.9 mph3.3 mph3.8 mph1.7 mph2.5 mph3.6 mph4.8 mph5.6 mph5.2 mph4.8 mph4.2 mph4 mph3.9 mph3.2 mph2.7 mph1.1 mph1 mph1.8 mph1.4 mph2 mph2.1 mph2.2 mph2.4 mph2.8 mph2.9 mph2.2 mph2.2 mph1.2 mph0.7 mph2.1 mph3 mph4.5 mph5.3 mph7.1 mph6.7 mph6.4 mph6.4 mph7.4 mph8.2 mph8.8 mph8.1 mph3.8 mph5.3 mph7.2 mph6.8 mph6.5 mph6.5 mph7.5 mph
Wind
Direction
180°
S
127°
SE
123°
ESE
162°
SSE
213°
SSW
236°
SW
249°
WSW
257°
WSW
262°
W
266°
W
268°
W
271°
W
275°
W
271°
W
268°
W
230°
SW
170°
S
136°
SE
162°
SSE
131°
SE
119°
ESE
103°
ESE
99°
E
107°
ESE
115°
ESE
104°
ESE
91°
E
74°
ENE
309°
NW
284°
WNW
278°
W
285°
WNW
292°
WNW
295°
WNW
308°
NW
320°
NW
337°
NNW
339°
NNW
351°
N
10°
N
26°
NNE
16°
NNE
337°
NNW
345°
NNW
345°
NNW
357°
N

N

N

Daily Forecast

Date High Low Precip. Humidity
Today
Apr 18

Clear
62 °F
48 °F
0%
53%
Monday
Apr 19

Clouds
60 °F
48 °F
20%
52%
Tuesday
Apr 20

Clouds
55 °F
48 °F
0%
74%
Wednesday
Apr 21

Clouds
56 °F
47 °F
0%
72%
Thursday
Apr 22

Clouds
57 °F
45 °F
0%
63%
Friday
Apr 23

Clouds
59 °F
46 °F
0%
59%
Saturday
Apr 24

Rain
56 °F
47 °F
99%
53%
Sunday
Apr 25

Rain
55 °F
47 °F
100%
66%
Monday
Apr 26

Rain
52 °F
46 °F
84%
80%
Tuesday
Apr 27

Rain
50 °F
47 °F
100%
95%
Wednesday
Apr 28

Rain
54 °F
50 °F
100%
96%
Thursday
Apr 29

Rain
54 °F
51 °F
100%
98%
Friday
Apr 30

Rain
55 °F
49 °F
100%
94%
Saturday
May 1

Rain
54 °F
45 °F
62%
68%
Sunday
May 2

Clouds
58 °F
42 °F
0%
63%
Monday
May 3

Clouds
66 °F
49 °F
0%
48%

Temperature 8-14 Day Outlook



Precipitation 8-14 Day Outlook




Quick Links
Lincoln City News
Lincoln City Photos
Lincoln City Videos




About Us
Contact Us
Site Map
Search Site
Advertise With Us
   
LincolnCity.USCoast.info
THE LINCOLN CITY WEBSITE

Copyright 2021, Coastal Town
Privacy    |    Legal